CST,Max TemperatureF,Mean TemperatureF,Min TemperatureF,Max Dew PointF,MeanDew PointF,Min DewpointF,Max Humidity, Mean Humidity, Min Humidity, Max Sea Level PressureIn, Mean Sea Level PressureIn, Min Sea Level PressureIn, Max VisibilityMiles, Mean VisibilityMiles, Min VisibilityMiles, Max Wind SpeedMPH, Mean Wind SpeedMPH, Max Gust SpeedMPH,PrecipitationIn, CloudCover, Events, WindDirDegrees
2012-2-1,61,48,34,48,38,31,93,74,41,30.20,30.11,30.02,10,10,6,8,2,,0.00,2,,315
2012-2-2,64,46,27,39,31,26,96,70,26,30.33,30.27,30.20,10,9,2,6,1,,0.00,1,,120
2012-2-3,53,42,30,45,38,27,100,80,47,30.32,30.21,30.12,10,7,2,15,5,18,0.89,6,Rain-Thunderstorm,79
2012-2-4,48,45,42,46,44,40,100,93,87,30.14,30.07,30.00,10,5,1,23,9,29,0.23,8,Rain,52
2012-2-5,48,40,30,40,36,29,96,84,54,30.32,30.25,30.13,10,6,2,10,6,,0.01,6,Rain,2
2012-2-6,46,36,27,34,30,25,100,87,54,30.33,30.27,30.22,10,5,0,12,3,,0.00,3,Fog,268
2012-2-7,50,38,26,35,29,24,96,83,54,30.36,30.29,30.21,10,5,1,12,3,,0.04,6,Snow,350
2012-2-8,36,34,32,31,28,25,92,78,65,30.48,30.42,30.36,10,9,2,10,5,,0.01,8,Snow,340
2012-2-9,39,34,30,29,25,21,88,69,51,30.40,30.31,30.18,10,10,10,8,2,,0.00,7,,205
2012-2-10,39,30,21,37,26,12,93,77,63,30.34,30.13,30.00,10,8,2,21,9,30,0.02,8,Rain,265
2012-2-11,28,22,16,12,5,0,71,49,30,30.60,30.54,30.35,10,10,10,21,14,31,0.00,1,,308
2012-2-12,37,26,14,15,6,0,74,48,23,30.63,30.50,30.30,10,10,10,13,7,,0.00,1,,276
2012-2-13,33,28,23,29,25,7,93,82,38,30.28,30.02,29.86,10,4,0,13,5,20,0.10,8,Fog-Snow,172
2012-2-14,39,34,28,33,30,27,92,86,70,30.04,29.95,29.84,10,9,5,9,4,,0.00,6,,236
2012-2-15,46,40,34,45,39,31,97,89,81,30.06,30.00,29.90,10,9,2,12,4,,0.20,7,Rain,135
2012-2-16,48,39,28,43,37,28,96,85,56,30.26,30.14,29.97,10,7,2,13,6,,0.08,6,Rain,282
2012-2-17,57,41,25,33,28,24,96,72,29,30.25,30.17,30.09,10,8,2,13,2,,0.00,1,,204
2012-2-18,46,40,32,31,27,24,85,64,47,30.24,30.16,30.12,10,10,10,10,6,16,0.00,2,,29
2012-2-19,43,35,25,26,23,20,85,65,41,30.18,30.15,30.11,10,10,10,9,5,,0.00,2,,34
2012-2-20,52,36,21,34,22,18,92,58,30,30.25,30.09,29.78,10,10,10,14,5,23,0.03,2,,127
2012-2-21,54,46,35,38,33,25,76,61,37,29.90,29.82,29.68,10,10,10,21,10,32,0.00,5,,244
2012-2-22,62,45,28,34,28,25,88,56,28,29.80,29.58,29.47,10,10,10,18,4,28,0.00,3,,263
2012-2-23,69,54,39,45,39,33,92,61,39,29.53,29.38,29.24,10,10,10,23,6,32,0.02,4,Rain,98
2012-2-24,46,40,32,30,25,19,73,56,35,30.17,29.93,29.57,10,10,10,28,19,41,0.00,6,,281
2012-2-25,42,34,27,26,15,10,73,47,28,30.36,30.28,30.17,10,10,10,20,10,29,0.00,0,,282
2012-2-26,64,47,30,29,22,14,55,37,20,30.24,30.13,30.01,10,10,10,21,8,34,0.00,0,,179
2012-2-27,52,46,37,31,23,16,67,45,24,30.47,30.39,30.17,10,10,10,14,6,17,0.00,3,,354
2012-2-28,62,46,30,56,34,22,80,57,37,30.42,30.11,29.66,10,10,10,15,6,24,0.00,5,Rain,127
2012-2-29,66,58,48,59,39,21,83,50,18,29.86,29.68,29.56,10,9,2,32,17,47,0.24,2,Rain-Thunderstorm,243